This is the latest recevied weather packets stored in our database for station/object K5NWZ. If no packets are shown the sender has not sent any weather packets the latest 1 day(s).
| Time | Temp. | Humidity | Pressure | Rain* | Wind** | Luminosity | Snow |
|---|---|---|---|---|---|---|---|
| 1778027650 | 0° C | 97% | 1023.1 hPa | 0 mm | 0.45 m/s, 294° | 16 W/m² | - |
| 1778027348 | 0° C | 97% | 1023.2 hPa | 0 mm | 0.89 m/s, 345° | 16 W/m² | - |
| 1778027043 | 0° C | 97% | 1023.2 hPa | 0 mm | 0.45 m/s, 306° | 21 W/m² | - |
| 1778026739 | 0° C | 97% | 1023.3 hPa | 0 mm | 0.45 m/s, 301° | 21 W/m² | - |
| 1778026436 | 0° C | 97% | 1023.1 hPa | 0 mm | 0.45 m/s, 287° | 20 W/m² | - |
| 1778026134 | 0° C | 97% | 1023.1 hPa | 0 mm | 0 m/s | 20 W/m² | - |
| 1778025831 | 0° C | 97% | 1023 hPa | 0 mm | 1.34 m/s, 323° | 24 W/m² | - |
| 1778025527 | 0° C | 97% | 1023 hPa | 0 mm | 0.89 m/s, 334° | 29 W/m² | - |
| 1778025225 | 0° C | 96% | 1022.6 hPa | 0 mm | 0.89 m/s, 306° | 28 W/m² | - |
| 1778024922 | 0° C | 96% | 1022.6 hPa | 0 mm | 0.45 m/s, 318° | 30 W/m² | - |
| 1778024620 | 0° C | 96% | 1022.7 hPa | 0 mm | 1.34 m/s, 317° | 32 W/m² | - |
| 1778024316 | 0° C | 96% | 1022.7 hPa | 0 mm | 0.89 m/s, 292° | 32 W/m² | - |
| 1778024014 | 0° C | 96% | 1022.8 hPa | 0 mm | 0 m/s | 26 W/m² | - |
| 1778023712 | 0° C | 96% | 1022.7 hPa | 0 mm | 0.45 m/s, 312° | 23 W/m² | - |
| 1778023409 | 0.56° C | 96% | 1022.8 hPa | 0 mm | 0.45 m/s, 309° | 28 W/m² | - |
| 1778023105 | 0° C | 96% | 1023 hPa | 0 mm | 0.89 m/s, 301° | 30 W/m² | - |
| 1778022804 | 0° C | 96% | 1023 hPa | 0 mm | 0.89 m/s, 298° | 30 W/m² | - |
| 1778022502 | 0° C | 96% | 1022.8 hPa | 0 mm | 0 m/s | 30 W/m² | - |
| 1778022198 | 0° C | 96% | 1022.7 hPa | 0 mm | 0 m/s | 28 W/m² | - |
| 1778021889 | 0° C | 96% | 1023 hPa | 0 mm | 0.45 m/s, 316° | 29 W/m² | - |
| 1778021587 | 0° C | 96% | 1023.1 hPa | 1.78 mm | 0.45 m/s, 314° | 33 W/m² | - |
| 1778021282 | 0.56° C | 96% | 1023 hPa | 1.78 mm | 0.45 m/s, 289° | 39 W/m² | - |
| 1778020980 | 0.56° C | 96% | 1022.7 hPa | 0 mm | 0.45 m/s, 304° | 44 W/m² | - |
| 1778020677 | 0.56° C | 96% | 1023 hPa | 0 mm | 0.89 m/s, 314° | 42 W/m² | - |
| 1778020374 | 0.56° C | 96% | 1022.6 hPa | 0 mm | 1.34 m/s, 345° | 48 W/m² | - |
* Rain latest hour (hover to see other rain measurements)
** Current wind speed in m/s (hover to see current wind gust speed)